Location: Miss�
(46.9484°N, 0.1922°W)
Time: 07:29:28
(UTC+00:00)

Cosmos 1980 Rocket - Pass Details

Date: 02 March 2021
Orbit: 828 x 851 km, 71.0° (Epoch: 11 April)

Event Time Altitude Azimuth Distance (km) Brightness Sun altitude
Rises 19:08:16 0° 245° (WSW) 3,393 6.4 -14.5°
Reaches altitude 10° 19:11:07 10° 258° (WSW) 2,465 5.8 -15.0°
Maximum altitude 19:15:46 26° 313° (NW) 1,631 4.3 -15.8°
Drops below altitude 10° 19:20:28 10° 9° (N) 2,486 4.6 -16.6°
Sets 19:23:22 0° 22° (NNE) 3,427 5.2 -17.0°
